Location: Montreal
(45.5000°N, 73.5833°W)
Time: 22:36:31
(UTC-04:00)

Envisat - Pass Details

Date: 12 October 2017
Orbit: 764 x 766 km, 98.2° (Epoch: 22 October)

Event Time Altitude Azimuth Distance (km) Brightness Sun altitude
Exits shadow 21:33:57 29° 267° (W) 1,368 4.6 -35.0°
Drops below altitude 10° 21:38:18 10° 326° (NW) 2,311 6.1 -35.6°
Sets 21:40:54 0° 337° (NNW) 3,242 6.9 -36.0°
